[[{"header":{"parameterUnit":"m.s-1","parameterCategory":1,"la1":30.2991,"la2":30.254,"lo1":-89.0895,"lo2":-89.0444,"dy":0.0017,"dx":0.0017,"nx":28,"ny":28,"refTime":"2023-09-07T09:00:00:Z","depth":0,"parameterNumber":2,"parameterNumberName":"U-component_of_WINDS"},"data":[0,0,0,0,0,0,0,0,0,0,0,0,0,0,0,0,0,0,0,0,0,0,0,0,0,0,0,0,0,0,0,0,0,0,0,0,0,0,0,0,0,0,0,0,0,0,0,0,0,0,0,0,0,0,0,0,0,0,-0.8065,-0.8064,0,-0.7978,-0.7977,-0.7976,-0.794,-0.7941,-0.7941,-0.7941,-0.7849,-0.7847,-0.7844,0,0,0,0,0,0,0,0,0,0,0,0,0,-0.8198,-0.8195,-0.8065,-0.8064,-0.8063,-0.7978,-0.7977,-0.7975,-0.794,-0.7941,-0.7941,-0.7941,-0.785,-0.7847,-0.7844,0,0,0,0,0,0,0,0,0,0,0,0,0,-0.8128,-0.8195,-0.8065,-0.8035,-0.8032,-0.7978,-0.7977,-0.7975,-0.794,-0.7941,-0.7941,-0.7941,-0.7851,-0.7847,-0.7843,-0.7813,0,0,-0.7831,-0.783,0,0,0,0,0,0,0,0,-0.8132,-0.8123,-0.8041,-0.8037,-0.8033,-0.797,-0.799,-0.7921,-0.794,-0.7975,-0.7941,-0.7941,-0.7889,-0.7882,-0.7865,-0.7808,-0.7804,-0.7831,-0.7828,-0.7827,-0.7826,0,0,0,0,0,0,0,-0.8137,-0.8127,-0.803,-0.8039,-0.8035,-0.8025,-0.8015,-0.7976,-0.7931,-0.7972,-0.7969,-0.7959,-0.7887,-0.7869,-0.7862,-0.7803,-0.7831,-0.7827,-0.7825,-0.7823,-0.7714,-0.7714,0,0,0,0,0,0,-0.8147,-0.8131,-0.8033,-0.8028,-0.8084,-0.8022,-0.8011,-0.799,-0.7932,-0.7923,-0.7959,-0.7958,-0.7875,-0.7867,-0.7859,-0.7818,-0.7827,-0.7823,-0.7821,-0.7715,-0.7714,-0.7714,0,0,0,0,0,0,-0.815,-0.8139,-0.8037,-0.8079,-0.8065,-0.802,-0.7996,-0.7988,-0.797,-0.7922,-0.7913,-0.7949,-0.7875,-0.7865,-0.7824,-0.7814,-0.7821,-0.7818,-0.7715,-0.7715,-0.7714,-0.7737,0,0,0,0,0,0,-0.8154,-0.814,-0.8129,-0.8079,-0.8063,-0.8005,-0.7995,-0.7986,-0.7964,-0.7961,-0.791,-0.7902,-0.7875,-0.783,-0.782,-0.7809,-0.7815,-0.7716,-0.7715,-0.7714,-0.7736,-0.7737,-0.7737,0,0,0,0,0,-0.8159,-0.8139,-0.8129,-0.8117,-0.8048,-0.8004,-0.7995,-0.7965,-0.7963,-0.7951,-0.7919,-0.7904,-0.7817,-0.7826,-0.7815,-0.7802,-0.7717,-0.7715,-0.7714,-0.7736,-0.7737,-0.7737,0,0,0,0,0,0,-0.8189,-0.8132,-0.812,-0.8083,-0.8049,-0.7998,-0.7982,-0.7966,-0.7931,-0.793,-0.7893,-0.7882,-0.7844,-0.7819,-0.783,-0.7768,-0.7765,-0.7762,-0.7786,-0.7786,-0.7786,-0.7793,-0.7811,0,0,0,0,0,-0.8192,-0.8162,-0.8113,-0.8085,-0.8068,-0.8028,-0.8008,-0.7987,-0.795,-0.7935,-0.7901,-0.7864,-0.7828,-0.7806,-0.777,-0.7732,-0.772,-0.7718,-0.7718,-0.7718,-0.7716,-0.7692,-0.769,-0.771,-0.771,-0.771,0,0,-0.8196,-0.8161,-0.8145,-0.809,-0.8061,-0.8029,-0.8016,-0.7984,-0.7959,-0.793,-0.7889,-0.7863,-0.7819,-0.7779,-0.776,-0.7757,-0.7707,-0.7717,-0.7717,-0.7714,-0.769,-0.7689,-0.7687,-0.7709,-0.7709,-0.7709,0,0,-0.8189,-0.816,-0.8133,-0.8103,-0.8059,-0.8033,-0.8026,-0.7977,-0.7959,-0.7918,-0.7894,-0.7864,-0.7803,-0.7773,-0.7749,-0.7728,-0.7711,-0.7717,-0.7718,-0.7695,-0.7693,-0.7692,-0.7683,-0.768,-0.7714,-0.7714,-0.7714,0,-0.82,-0.8153,-0.8121,-0.8089,-0.8065,-0.8036,-0.8007,-0.798,-0.7927,-0.791,-0.7908,-0.783,-0.7799,-0.7751,-0.7746,-0.7728,-0.7718,-0.7723,-0.7696,-0.7694,-0.7692,-0.7683,-0.768,-0.7715,-0.7715,-0.7715,-0.7715,0,-0.8168,-0.8135,-0.8118,-0.8067,-0.8041,-0.8011,-0.7973,-0.795,-0.7931,-0.7904,-0.7861,-0.7822,-0.7778,-0.7765,-0.7746,-0.7713,-0.7713,-0.7704,-0.77,-0.7692,-0.7683,-0.7679,-0.7717,-0.7716,-0.7716,-0.7716,0,0,-0.8178,-0.8109,-0.8103,-0.8079,-0.8027,-0.8001,-0.7968,-0.7925,-0.7905,-0.7869,-0.784,-0.7788,-0.7779,-0.7752,-0.773,-0.771,-0.7693,-0.7703,-0.7701,-0.7702,-0.7652,-0.7659,-0.7656,-0.7682,-0.7681,-0.768,-0.7656,0,-0.8163,-0.8106,-0.8075,-0.8029,-0.7997,-0.7968,-0.794,-0.7904,-0.7877,-0.7845,-0.7815,-0.7779,-0.777,-0.7754,-0.7733,-0.77,-0.7682,-0.7701,-0.7653,-0.7652,-0.7665,-0.7651,-0.7659,-0.7638,-0.7652,-0.7651,-0.7651,0,-0.8139,-0.8103,-0.8054,-0.8004,-0.7989,-0.7965,-0.7921,-0.7892,-0.7849,-0.7831,-0.78,-0.7777,-0.774,-0.7739,-0.7686,-0.77,-0.7678,-0.7658,-0.7657,-0.7651,-0.7651,-0.7645,-0.7631,-0.7627,-0.7645,-0.7646,-0.7646,0,-0.815,-0.8089,-0.8052,-0.8032,-0.7973,-0.7956,-0.793,-0.7889,-0.7864,-0.7826,-0.7809,-0.7766,-0.7743,-0.771,-0.7675,-0.7678,-0.7626,-0.7622,-0.7608,-0.7609,-0.7599,-0.76,-0.7581,-0.7585,-0.7585,-0.7585,-0.7585,0,-0.8137,-0.8108,-0.8056,-0.8033,-0.7999,-0.7963,-0.793,-0.7902,-0.7864,-0.7834,-0.7806,-0.7778,-0.7734,-0.77,-0.7673,-0.7633,-0.7622,-0.7605,-0.7598,-0.7608,-0.761,-0.7593,-0.7594,-0.7584,-0.7585,-0.7585,-0.7585,0,-0.8145,-0.8109,-0.8066,-0.8013,-0.7999,-0.7976,-0.793,-0.7906,-0.7877,-0.7839,-0.7828,-0.7782,-0.774,-0.7702,-0.7647,-0.7628,-0.7587,-0.7578,-0.7601,-0.7597,-0.7585,-0.7587,-0.7555,-0.7548,-0.7558,-0.7558,-0.7558,0,-0.8139,-0.8116,-0.806,-0.8038,-0.8013,-0.7978,-0.7952,-0.7915,-0.7889,-0.7838,-0.7819,-0.7776,-0.7739,-0.7673,-0.7634,-0.759,-0.758,-0.7572,-0.7574,-0.7583,-0.7579,-0.7581,-0.7578,-0.7572,-0.7572,-0.7572,-0.7573,0,-0.8132,-0.8114,-0.8079,-0.8036,-0.8007,-0.7971,-0.7935,-0.7918,-0.7873,-0.7845,-0.7802,-0.7774,-0.7716,-0.7673,-0.7625,-0.7597,-0.7576,-0.7572,-0.7566,-0.7576,-0.759,-0.7581,-0.7602,-0.7573,-0.7573,-0.7573,-0.7573,-0.7573,-0.8132,-0.8109,-0.8066,-0.8027,-0.7995,-0.7962,-0.7936,-0.7903,-0.7867,-0.7818,-0.7797,-0.7753,-0.7709,-0.7642,-0.7614,-0.7578,-0.7574,-0.7566,-0.7564,-0.7563,-0.7564,-0.7596,-0.7569,-0.7569,-0.7569,-0.7569,-0.7569,0,-0.8122,-0.8093,-0.8057,-0.8007,-0.7975,-0.7959,-0.7918,-0.7892,-0.7854,-0.7815,-0.7779,-0.7728,-0.7685,-0.7642,-0.7596,-0.7575,-0.7564,-0.7564,-0.7565,-0.7559,-0.7571,-0.758,-0.7573,-0.7573,-0.7573,-0.7573,-0.7573,-0.7573,-0.8114,-0.8075,-0.8052,-0.7996,-0.7966,-0.7923,-0.7901,-0.7868,-0.7837,-0.7782,-0.7746,-0.7718,-0.7676,-0.7627,-0.7586,-0.7574,-0.7558,-0.756,-0.7546,-0.7558,-0.7558,-0.7558,-0.7567,-0.7557,-0.7557,-0.7537,-0.7536,-0.7536]},{"header":{"parameterUnit":"m.s-1","parameterCategory":1,"la1":30.2991,"la2":30.254,"lo1":-89.0895,"lo2":-89.0444,"dy":0.0017,"dx":0.0017,"nx":28,"ny":28,"refTime":"2023-09-07T09:00:00:Z","depth":0,"parameterNumber":3,"parameterNumberName":"V-component_of_WINDS"},"data":[0,0,0,0,0,0,0,0,0,0,0,0,0,0,0,0,0,0,0,0,0,0,0,0,0,0,0,0,0,0,0,0,0,0,0,0,0,0,0,0,0,0,0,0,0,0,0,0,0,0,0,0,0,0,0,0,0,0,1.4717,1.4717,0,1.4708,1.4708,1.4708,1.4614,1.4611,1.4609,1.4607,1.4599,1.4601,1.4603,0,0,0,0,0,0,0,0,0,0,0,0,0,1.4654,1.4656,1.4717,1.4717,1.4717,1.4708,1.4708,1.4708,1.4614,1.4611,1.4608,1.4606,1.4599,1.4601,1.4604,0,0,0,0,0,0,0,0,0,0,0,0,0,1.4667,1.4656,1.4717,1.4669,1.4664,1.4708,1.4708,1.4708,1.4615,1.4611,1.4608,1.4604,1.4598,1.4601,1.4604,1.4694,0,0,1.4613,1.4614,0,0,0,0,0,0,0,0,1.4666,1.4669,1.4676,1.4672,1.4667,1.4658,1.4683,1.4703,1.4616,1.4634,1.4607,1.4603,1.4622,1.4623,1.4629,1.4693,1.4693,1.4613,1.4615,1.4616,1.4617,0,0,0,0,0,0,0,1.4666,1.4669,1.4714,1.4676,1.4671,1.4648,1.4646,1.4687,1.4648,1.4632,1.4625,1.4625,1.4619,1.4626,1.4628,1.4693,1.4613,1.4616,1.4618,1.4619,1.4831,1.4835,0,0,0,0,0,0,1.4671,1.4669,1.4714,1.4713,1.4658,1.4652,1.465,1.4665,1.4647,1.4641,1.4628,1.4621,1.4623,1.4625,1.4628,1.4732,1.4616,1.4619,1.4621,1.4827,1.4832,1.4836,0,0,0,0,0,0,1.467,1.4676,1.4714,1.4689,1.4692,1.4657,1.4675,1.4667,1.4674,1.4644,1.4637,1.4643,1.462,1.4623,1.4678,1.473,1.4621,1.4623,1.4823,1.4829,1.4834,1.4941,0,0,0,0,0,0,1.4669,1.4676,1.471,1.4691,1.4694,1.4765,1.4678,1.4669,1.4679,1.4669,1.4656,1.4651,1.4618,1.4674,1.4681,1.4732,1.4626,1.4818,1.4826,1.4832,1.4933,1.495,1.4965,0,0,0,0,0,1.4667,1.474,1.4712,1.4718,1.4735,1.4768,1.477,1.473,1.4684,1.4717,1.4699,1.4651,1.4724,1.468,1.4687,1.4741,1.4815,1.4823,1.4832,1.4926,1.4947,1.4964,0,0,0,0,0,0,1.4766,1.4737,1.4705,1.4774,1.4774,1.4752,1.4792,1.4753,1.4766,1.4757,1.4707,1.4705,1.4768,1.4759,1.4712,1.4827,1.4761,1.4771,1.483,1.485,1.4865,1.4866,1.4628,0,0,0,0,0,1.4796,1.4825,1.4797,1.4861,1.4863,1.4828,1.4841,1.481,1.4808,1.4808,1.4793,1.4794,1.4816,1.4833,1.4852,1.4932,1.4928,1.4972,1.4988,1.5001,1.501,1.5053,1.5072,1.4865,1.4864,1.4864,0,0,1.4858,1.4846,1.4867,1.4881,1.4877,1.4909,1.4829,1.4865,1.4888,1.4814,1.4864,1.4854,1.4851,1.4919,1.4948,1.4914,1.5067,1.5012,1.5022,1.5025,1.5064,1.5083,1.5101,1.487,1.4869,1.4868,0,0,1.4987,1.4981,1.5033,1.5031,1.5027,1.5003,1.5016,1.5,1.499,1.504,1.4985,1.5012,1.5053,1.5053,1.5059,1.519,1.5147,1.5197,1.528,1.5322,1.5338,1.5353,1.54,1.5417,1.5207,1.5207,1.5208,0,1.5065,1.5109,1.5065,1.5105,1.5114,1.5048,1.5101,1.5102,1.5104,1.5112,1.5074,1.5124,1.5117,1.5185,1.5217,1.5223,1.5237,1.5198,1.534,1.5353,1.5366,1.5411,1.5428,1.5214,1.5213,1.5212,1.5212,0,1.5205,1.5237,1.5281,1.5284,1.5298,1.5344,1.5308,1.5327,1.5296,1.5277,1.5329,1.5319,1.5336,1.535,1.5319,1.5413,1.5393,1.5348,1.528,1.5393,1.5434,1.5451,1.5222,1.522,1.5218,1.5217,0,0,1.5396,1.5376,1.5392,1.5393,1.5384,1.5408,1.5453,1.5469,1.5486,1.549,1.5527,1.5563,1.5522,1.5528,1.5498,1.5535,1.564,1.5485,1.5485,1.5515,1.5744,1.5778,1.5798,1.5612,1.5615,1.5617,1.5744,0,1.552,1.5594,1.5556,1.5635,1.5665,1.5603,1.5642,1.5641,1.5625,1.5648,1.563,1.5657,1.56,1.5604,1.5637,1.562,1.5685,1.561,1.5646,1.5647,1.5648,1.5819,1.5855,1.5975,1.576,1.5763,1.5764,0,1.5675,1.5686,1.5768,1.5754,1.5765,1.58,1.5813,1.5835,1.5834,1.5819,1.5827,1.5789,1.5832,1.5765,1.5825,1.5775,1.5787,1.5781,1.5785,1.5787,1.5713,1.5826,1.6012,1.6031,1.5789,1.5787,1.5785,0,1.5806,1.5841,1.5895,1.5898,1.5883,1.591,1.5905,1.59,1.5912,1.5923,1.5931,1.5947,1.5956,1.597,1.5937,1.5892,1.6002,1.5932,1.5992,1.5993,1.6017,1.6016,1.6209,1.6025,1.6025,1.6025,1.6024,0,1.5949,1.6002,1.5954,1.5987,1.6045,1.6001,1.606,1.6048,1.6044,1.6075,1.6023,1.6053,1.6007,1.6033,1.6008,1.6061,1.6066,1.6056,1.6049,1.6061,1.6062,1.6068,1.6059,1.603,1.6029,1.6028,1.6027,0,1.6105,1.6075,1.6129,1.6111,1.6108,1.6152,1.6136,1.6167,1.6147,1.6186,1.6193,1.6163,1.6191,1.6159,1.6184,1.6167,1.624,1.622,1.6241,1.6235,1.6297,1.6292,1.65,1.6525,1.6326,1.6328,1.6329,0,1.6198,1.6237,1.6223,1.624,1.6238,1.6266,1.6278,1.6238,1.6253,1.6255,1.6285,1.6308,1.6325,1.6372,1.6353,1.6372,1.6353,1.6424,1.6355,1.6367,1.6354,1.6353,1.6357,1.6439,1.6441,1.6443,1.6444,0,1.6367,1.635,1.637,1.6385,1.6402,1.6412,1.6418,1.6435,1.6393,1.6413,1.644,1.6453,1.6479,1.6503,1.6517,1.6513,1.6473,1.6467,1.6481,1.6494,1.6505,1.65,1.628,1.6462,1.646,1.6459,1.6458,1.6457,1.6494,1.6526,1.6522,1.6546,1.6547,1.6554,1.6582,1.6566,1.6588,1.6606,1.6581,1.6616,1.6614,1.6629,1.663,1.6657,1.6626,1.6648,1.6653,1.6659,1.6669,1.65,1.6659,1.6659,1.6658,1.6658,1.6657,0,1.666,1.6655,1.6677,1.6688,1.6707,1.6667,1.6672,1.6691,1.6722,1.6724,1.6742,1.6774,1.6798,1.6781,1.6801,1.6826,1.6808,1.6833,1.6831,1.6831,1.6694,1.668,1.6847,1.6847,1.6847,1.6847,1.6847,1.6847,1.6749,1.6801,1.6785,1.6838,1.6832,1.6865,1.6872,1.6879,1.688,1.6919,1.6938,1.6927,1.6921,1.6941,1.6961,1.6956,1.6966,1.6997,1.6986,1.6859,1.684,1.6822,1.6808,1.7,1.7,1.7119,1.712,1.7121]}]]